UAL2383 KORD-KBHM

Flight info

Callsign UAL2383
Flight time 1h 14m
Altitude 35000
Route CMSKY CARYN CYBIL PXV/N0443F370 NULLS
Aircraft B737/M-SDE2E3FGHIRWXY/LB1

Departure

Time 2026-04-30 21:39
Airport Chicago O'Hare International Airport (KORD)

Arrival

Time 2026-04-30 22:53
Airport Birmingham-Shuttlesworth International Airport (KBHM)
Time Latitude Longitude Altitude Speed Heading
2026-04-30 21:28 41.98004 -87.90708 668 ft 0 kts 99°
2026-04-30 21:33 41.98006 -87.90723 668 ft 3 kts 99°
2026-04-30 21:33 41.98009 -87.90746 664 ft 3 kts 99°
2026-04-30 21:34 41.98012 -87.90768 666 ft 2 kts 138°
2026-04-30 21:34 41.98024 -87.90776 667 ft 0 kts 191°
2026-04-30 21:34 41.98020 -87.90778 667 ft 4 kts 201°
2026-04-30 21:35 41.98029 -87.90817 664 ft 6 kts 343°
2026-04-30 21:35 41.98127 -87.90837 665 ft 21 kts 351°
2026-04-30 21:35 41.98269 -87.90888 668 ft 22 kts 309°
2026-04-30 21:35 41.98289 -87.91081 668 ft 21 kts 270°
2026-04-30 21:36 41.98290 -87.91270 670 ft 20 kts 270°
2026-04-30 21:36 41.98291 -87.91457 669 ft 20 kts 270°
2026-04-30 21:37 41.98291 -87.91990 668 ft 21 kts 269°
2026-04-30 21:37 41.98289 -87.92192 667 ft 22 kts 269°
2026-04-30 21:37 41.98288 -87.92391 667 ft 21 kts 269°
2026-04-30 21:37 41.98294 -87.92602 667 ft 23 kts 294°
2026-04-30 21:38 41.98381 -87.92621 666 ft 15 kts 54°
2026-04-30 21:38 41.98387 -87.92548 666 ft 7 kts 89°
2026-04-30 21:38 41.98388 -87.92121 667 ft 93 kts 90°
2026-04-30 21:38 41.98408 -87.90877 733 ft 166 kts 86°
2026-04-30 21:39 41.98420 -87.89145 1263 ft 202 kts 95°
2026-04-30 21:39 41.98075 -87.87234 2016 ft 223 kts 105°
2026-04-30 21:39 41.97864 -87.85011 2437 ft 255 kts 98°
2026-04-30 21:39 41.97250 -87.82824 3469 ft 249 kts 130°
2026-04-30 21:40 41.95867 -87.81544 4465 ft 243 kts 168°
2026-04-30 21:40 41.94232 -87.81640 5388 ft 236 kts 204°
2026-04-30 21:40 41.92592 -87.82271 6070 ft 257 kts 192°
2026-04-30 21:40 41.90775 -87.82563 7008 ft 267 kts 190°
2026-04-30 21:41 41.88924 -87.82829 8226 ft 268 kts 190°
2026-04-30 21:41 41.87057 -87.83075 9437 ft 271 kts 189°
2026-04-30 21:41 41.85187 -87.83304 10447 ft 279 kts 189°
2026-04-30 21:41 41.83162 -87.83546 10856 ft 309 kts 189°
2026-04-30 21:42 41.80916 -87.83804 11189 ft 337 kts 189°
2026-04-30 21:42 41.78540 -87.84058 11979 ft 348 kts 189°
2026-04-30 21:42 41.76108 -87.84305 12964 ft 353 kts 189°
2026-04-30 21:42 41.73688 -87.84543 13995 ft 355 kts 190°
2026-04-30 21:43 41.71168 -87.84790 14902 ft 361 kts 190°
2026-04-30 21:43 41.68636 -87.85040 15705 ft 369 kts 191°
2026-04-30 21:43 41.66053 -87.85296 16533 ft 375 kts 191°
2026-04-30 21:43 41.63427 -87.85555 17375 ft 382 kts 191°
2026-04-30 21:44 41.60756 -87.85818 18203 ft 388 kts 192°
2026-04-30 21:44 41.58040 -87.86085 18945 ft 394 kts 192°
2026-04-30 21:44 41.55297 -87.86353 19721 ft 398 kts 192°
2026-04-30 21:44 41.52520 -87.86624 20470 ft 402 kts 192°
2026-04-30 21:45 41.49717 -87.86897 21209 ft 406 kts 192°
2026-04-30 21:45 41.46876 -87.87175 21955 ft 411 kts 192°
2026-04-30 21:45 41.44011 -87.87454 22681 ft 415 kts 192°
2026-04-30 21:45 41.41114 -87.87737 23391 ft 420 kts 192°
2026-04-30 21:46 41.38185 -87.88023 23996 ft 424 kts 192°
2026-04-30 21:46 41.35230 -87.88309 24581 ft 427 kts 192°
2026-04-30 21:46 41.32293 -87.88594 25125 ft 430 kts 193°
2026-04-30 21:46 41.29289 -87.88886 25688 ft 433 kts 193°
2026-04-30 21:47 41.26269 -87.89180 26249 ft 437 kts 193°
2026-04-30 21:47 41.23209 -87.89345 26774 ft 445 kts 189°
2026-04-30 21:47 41.20094 -87.89296 27291 ft 450 kts 188°
2026-04-30 21:47 41.16951 -87.89177 27802 ft 454 kts 187°
2026-04-30 21:48 41.14190 -87.89056 28228 ft 457 kts 187°
2026-04-30 21:48 41.11350 -87.88932 28656 ft 460 kts 187°
2026-04-30 21:48 41.08186 -87.88804 29107 ft 462 kts 188°
2026-04-30 21:48 41.04968 -87.88686 29572 ft 465 kts 188°
2026-04-30 21:49 41.01725 -87.88576 30010 ft 467 kts 188°
2026-04-30 21:49 40.98470 -87.88471 30460 ft 468 kts 188°
2026-04-30 21:49 40.95227 -87.88366 31005 ft 465 kts 188°
2026-04-30 21:49 40.91999 -87.88261 31557 ft 463 kts 188°
2026-04-30 21:50 40.88787 -87.88159 32028 ft 461 kts 189°
2026-04-30 21:50 40.85575 -87.88059 32467 ft 461 kts 189°
2026-04-30 21:50 40.82356 -87.87961 32919 ft 461 kts 189°
2026-04-30 21:50 40.79156 -87.87862 33401 ft 460 kts 189°
2026-04-30 21:51 40.75962 -87.87763 33875 ft 459 kts 189°
2026-04-30 21:51 40.72769 -87.87664 34263 ft 458 kts 189°
2026-04-30 21:51 40.69579 -87.87566 34577 ft 459 kts 189°
2026-04-30 21:51 40.66382 -87.87469 34878 ft 460 kts 189°
2026-04-30 21:52 40.63171 -87.87372 35028 ft 464 kts 189°
2026-04-30 21:52 40.59974 -87.87277 35024 ft 466 kts 189°
2026-04-30 21:52 40.53507 -87.87071 35013 ft 460 kts 189°
2026-04-30 21:53 40.47132 -87.86869 35032 ft 458 kts 189°
2026-04-30 21:53 40.40761 -87.86678 35019 ft 458 kts 190°
2026-04-30 21:54 40.34384 -87.86483 35026 ft 459 kts 190°
2026-04-30 21:54 40.27991 -87.86264 35027 ft 460 kts 189°
2026-04-30 21:55 40.21576 -87.85978 34991 ft 461 kts 190°
2026-04-30 21:55 40.15159 -87.85681 35014 ft 461 kts 190°
2026-04-30 21:56 40.08740 -87.85391 35024 ft 462 kts 190°
2026-04-30 21:56 40.02312 -87.85107 35032 ft 462 kts 190°
2026-04-30 21:57 39.95931 -87.84827 35025 ft 462 kts 191°
2026-04-30 21:57 39.89510 -87.84547 35029 ft 462 kts 191°
2026-04-30 21:58 39.83079 -87.84268 35030 ft 462 kts 191°
2026-04-30 21:58 39.76645 -87.83988 34991 ft 462 kts 191°
2026-04-30 21:59 39.70222 -87.83708 35024 ft 462 kts 192°
2026-04-30 22:00 39.60584 -87.83291 35032 ft 462 kts 192°
2026-04-30 22:00 39.50939 -87.82873 35026 ft 462 kts 192°
2026-04-30 22:01 39.44514 -87.82596 35034 ft 462 kts 192°
2026-04-30 22:01 39.38090 -87.82320 35039 ft 462 kts 192°
2026-04-30 22:02 39.32253 -87.82070 34992 ft 462 kts 193°
2026-04-30 22:02 39.28172 -87.81894 35033 ft 461 kts 193°
2026-04-30 22:03 39.21759 -87.81618 35035 ft 461 kts 193°
2026-04-30 22:03 39.15330 -87.81341 35033 ft 463 kts 192°
2026-04-30 22:04 39.08813 -87.80393 35003 ft 477 kts 186°
2026-04-30 22:05 38.98877 -87.78436 35028 ft 485 kts 186°
2026-04-30 22:05 38.92212 -87.77152 35033 ft 484 kts 186°
2026-04-30 22:06 38.85551 -87.75924 34976 ft 483 kts 187°
2026-04-30 22:06 38.75583 -87.74120 35029 ft 482 kts 187°
2026-04-30 22:07 38.70058 -87.73122 35041 ft 483 kts 187°
2026-04-30 22:07 38.63406 -87.71921 35025 ft 483 kts 187°
2026-04-30 22:08 38.56752 -87.70718 35045 ft 482 kts 187°
2026-04-30 22:08 38.50105 -87.69521 35045 ft 483 kts 187°
2026-04-30 22:09 38.43455 -87.68326 35045 ft 483 kts 187°
2026-04-30 22:09 38.36795 -87.67131 35047 ft 483 kts 187°
2026-04-30 22:10 38.30141 -87.65938 35040 ft 483 kts 187°
2026-04-30 22:10 38.23486 -87.64748 35029 ft 483 kts 187°
2026-04-30 22:11 38.13498 -87.62965 35022 ft 482 kts 187°
2026-04-30 22:12 38.06853 -87.61781 35030 ft 482 kts 187°
2026-04-30 22:12 38.00209 -87.60601 35030 ft 482 kts 187°
2026-04-30 22:13 37.93610 -87.59431 35048 ft 482 kts 187°
2026-04-30 22:13 37.86970 -87.58254 35037 ft 480 kts 187°
2026-04-30 22:14 37.80352 -87.57085 35039 ft 480 kts 187°
2026-04-30 22:14 37.73726 -87.55917 35047 ft 480 kts 187°
2026-04-30 22:15 37.67100 -87.54751 35000 ft 480 kts 187°
2026-04-30 22:15 37.60488 -87.53587 35034 ft 479 kts 187°
2026-04-30 22:16 37.53886 -87.52429 35052 ft 479 kts 187°
2026-04-30 22:17 37.40717 -87.50125 35033 ft 478 kts 187°
2026-04-30 22:17 37.30842 -87.48401 35033 ft 477 kts 187°
2026-04-30 22:18 37.20976 -87.46685 35039 ft 477 kts 187°
2026-04-30 22:19 37.11129 -87.44978 35023 ft 476 kts 188°
2026-04-30 22:20 37.01278 -87.43276 35017 ft 477 kts 188°
2026-04-30 22:20 36.91413 -87.41571 35001 ft 477 kts 188°
2026-04-30 22:21 36.84832 -87.40439 35016 ft 478 kts 188°
2026-04-30 22:21 36.78230 -87.39305 35013 ft 479 kts 188°
2026-04-30 22:22 36.71659 -87.38178 34963 ft 480 kts 187°
2026-04-30 22:22 36.65036 -87.37042 35008 ft 481 kts 187°
2026-04-30 22:23 36.58399 -87.35907 35015 ft 482 kts 187°
2026-04-30 22:23 36.51744 -87.34771 35037 ft 482 kts 187°
2026-04-30 22:24 36.45092 -87.33637 34984 ft 482 kts 187°
2026-04-30 22:24 36.38453 -87.32503 35036 ft 481 kts 187°
2026-04-30 22:25 36.31810 -87.31376 35032 ft 482 kts 187°
2026-04-30 22:25 36.25163 -87.30250 35033 ft 482 kts 187°
2026-04-30 22:26 36.15240 -87.28570 35022 ft 482 kts 187°
2026-04-30 22:27 36.08592 -87.27448 35023 ft 482 kts 187°
2026-04-30 22:27 35.98613 -87.25767 35020 ft 483 kts 187°
2026-04-30 22:28 35.88627 -87.24089 35016 ft 482 kts 187°
2026-04-30 22:29 35.75328 -87.21860 35017 ft 482 kts 187°
2026-04-30 22:31 35.52092 -87.17987 34989 ft 484 kts 187°
2026-04-30 22:32 35.35378 -87.15204 34992 ft 485 kts 187°
2026-04-30 22:33 35.18614 -87.12445 34957 ft 487 kts 186°
2026-04-30 22:34 35.08495 -87.10781 34348 ft 497 kts 186°
2026-04-30 22:35 35.01715 -87.09665 32598 ft 494 kts 186°
2026-04-30 22:36 34.88157 -87.07429 28846 ft 484 kts 185°
2026-04-30 22:36 34.84850 -87.06879 28100 ft 476 kts 185°
2026-04-30 22:37 34.75222 -87.05297 25899 ft 456 kts 184°
2026-04-30 22:37 34.72102 -87.04790 25192 ft 451 kts 184°
2026-04-30 22:37 34.65941 -87.03792 23745 ft 441 kts 183°
2026-04-30 22:38 34.59915 -87.02816 22164 ft 432 kts 182°
2026-04-30 22:38 34.54040 -87.01863 20731 ft 421 kts 181°
2026-04-30 22:39 34.51152 -87.01396 20035 ft 416 kts 180°
2026-04-30 22:39 34.42663 -87.00026 17883 ft 406 kts 178°
2026-04-30 22:40 34.34404 -86.98690 15750 ft 392 kts 178°
2026-04-30 22:41 34.26448 -86.97407 13748 ft 381 kts 177°
2026-04-30 22:41 34.21244 -86.96570 12336 ft 372 kts 176°
2026-04-30 22:42 34.11384 -86.94981 10996 ft 330 kts 176°
2026-04-30 22:43 34.06908 -86.94263 10998 ft 323 kts 176°
2026-04-30 22:43 34.02617 -86.92727 10952 ft 334 kts 146°
2026-04-30 22:44 33.99222 -86.88810 10198 ft 334 kts 136°
2026-04-30 22:45 33.92988 -86.80997 8511 ft 315 kts 136°
2026-04-30 22:45 33.89946 -86.77261 7606 ft 309 kts 135°
2026-04-30 22:46 33.86930 -86.73661 6750 ft 305 kts 135°
2026-04-30 22:47 33.81064 -86.66910 5982 ft 277 kts 136°
2026-04-30 22:47 33.78257 -86.63745 5822 ft 275 kts 136°
2026-04-30 22:48 33.75459 -86.60640 5121 ft 273 kts 136°
2026-04-30 22:49 33.70968 -86.56633 4043 ft 272 kts 166°
2026-04-30 22:49 33.66050 -86.58729 3045 ft 245 kts 228°
2026-04-30 22:50 33.62727 -86.64535 2639 ft 203 kts 238°
2026-04-30 22:51 33.61170 -86.67245 2099 ft 193 kts 237°
2026-04-30 22:51 33.59689 -86.69824 1574 ft 177 kts 238°
2026-04-30 22:52 33.59006 -86.71016 1363 ft 170 kts 237°
2026-04-30 22:52 33.57725 -86.73216 852 ft 157 kts 238°
2026-04-30 22:53 33.56637 -86.75154 609 ft 104 kts 234°
2026-04-30 22:53 33.56309 -86.75475 612 ft 19 kts 128°
2026-04-30 22:53 33.56205 -86.75374 619 ft 15 kts 156°
2026-04-30 22:54 33.56171 -86.75364 618 ft 0 kts 168°